Year,Month,Day,Hour,Minute,Value (Times are PST for windspeed in km/hr)
2006,12,21,00,00,15.60
2006,12,21,00,01,8.40
2006,12,21,00,02,9.00
2006,12,21,00,03,6.40
2006,12,21,00,04,7.50
2006,12,21,00,05,6.80
2006,12,21,00,06,7.20
2006,12,21,00,07,9.40
2006,12,21,00,08,9.20
2006,12,21,00,09,8.10
2006,12,21,00,10,7.20
2006,12,21,00,11,7.00
2006,12,21,00,12,9.50
2006,12,21,00,13,13.70
2006,12,21,00,14,9.70
2006,12,21,00,15,9.30
2006,12,21,00,16,8.10
2006,12,21,00,17,8.40
2006,12,21,00,18,11.30
2006,12,21,00,19,7.50
2006,12,21,00,20,7.10
2006,12,21,00,21,5.70
2006,12,21,00,22,10.80
2006,12,21,00,23,6.30
2006,12,21,00,24,12.90
2006,12,21,00,25,9.50
2006,12,21,00,26,13.00
2006,12,21,00,27,7.20
2006,12,21,00,28,6.80
2006,12,21,00,29,11.60
2006,12,21,00,30,4.20
2006,12,21,00,31,16.20
2006,12,21,00,32,5.50
2006,12,21,00,33,3.80
2006,12,21,00,34,8.20
2006,12,21,00,35,6.50
2006,12,21,00,36,7.20
2006,12,21,00,37,9.40
2006,12,21,00,38,10.30
2006,12,21,00,39,7.10
2006,12,21,00,40,5.30
2006,12,21,00,41,7.50
2006,12,21,00,42,10.90
2006,12,21,00,43,10.50
2006,12,21,00,44,5.50
2006,12,21,00,45,6.40
2006,12,21,00,46,4.60
2006,12,21,00,47,9.70
2006,12,21,00,48,8.20
2006,12,21,00,49,6.30
2006,12,21,00,50,14.80
2006,12,21,00,51,10.60
2006,12,21,00,52,6.80
2006,12,21,00,53,6.00
2006,12,21,00,54,9.70
2006,12,21,00,55,10.90
2006,12,21,00,56,8.00
2006,12,21,00,57,9.90
2006,12,21,00,58,5.60
2006,12,21,00,59,4.40
2006,12,21,01,00,5.50
2006,12,21,01,01,5.10
2006,12,21,01,02,11.20
2006,12,21,01,03,5.90
2006,12,21,01,04,6.80
2006,12,21,01,05,9.90
2006,12,21,01,06,4.90
2006,12,21,01,07,6.50
2006,12,21,01,08,6.50
2006,12,21,01,09,6.60
2006,12,21,01,10,6.80
2006,12,21,01,11,6.50
2006,12,21,01,12,6.30
2006,12,21,01,13,10.00
2006,12,21,01,14,9.20
2006,12,21,01,15,7.50
2006,12,21,01,16,6.80
2006,12,21,01,17,4.60
2006,12,21,01,18,7.90
2006,12,21,01,19,8.20
2006,12,21,01,20,9.80
2006,12,21,01,21,10.40
2006,12,21,01,22,5.50
2006,12,21,01,23,4.70
2006,12,21,01,24,7.00
2006,12,21,01,25,2.90
2006,12,21,01,26,5.30
2006,12,21,01,27,9.40
2006,12,21,01,28,9.70
2006,12,21,01,29,8.50
2006,12,21,01,30,10.50
2006,12,21,01,31,4.60
2006,12,21,01,32,16.70
2006,12,21,01,33,6.80
2006,12,21,01,34,8.60
2006,12,21,01,35,7.60
2006,12,21,01,36,7.60
2006,12,21,01,37,8.00
2006,12,21,01,38,7.80
2006,12,21,01,39,5.50
2006,12,21,01,40,10.70
2006,12,21,01,41,7.10
2006,12,21,01,42,6.00
2006,12,21,01,43,6.70
2006,12,21,01,44,8.80
2006,12,21,01,45,7.60
2006,12,21,01,46,7.10
2006,12,21,01,47,4.50
2006,12,21,01,48,5.20
2006,12,21,01,49,12.90
2006,12,21,01,50,5.60
2006,12,21,01,51,9.10
2006,12,21,01,52,18.40
2006,12,21,01,53,9.50
2006,12,21,01,54,7.60
2006,12,21,01,55,6.20
2006,12,21,01,56,10.90
2006,12,21,01,57,7.20
2006,12,21,01,58,6.40
2006,12,21,01,59,2.90
2006,12,21,02,00,11.30
2006,12,21,02,01,12.30
2006,12,21,02,02,6.50
2006,12,21,02,03,8.50
2006,12,21,02,04,7.10
2006,12,21,02,05,7.70
2006,12,21,02,06,19.20
2006,12,21,02,07,12.80
2006,12,21,02,08,5.60
2006,12,21,02,09,15.20
2006,12,21,02,10,9.20
2006,12,21,02,11,13.10
2006,12,21,02,12,9.00
2006,12,21,02,13,16.30
2006,12,21,02,14,9.60
2006,12,21,02,15,9.10
2006,12,21,02,16,5.60
2006,12,21,02,17,7.60
2006,12,21,02,18,9.00
2006,12,21,02,19,6.50
2006,12,21,02,20,9.40
2006,12,21,02,21,8.00
2006,12,21,02,22,4.80
2006,12,21,02,23,4.70
2006,12,21,02,24,6.80
2006,12,21,02,25,6.80
2006,12,21,02,26,8.50
2006,12,21,02,27,5.50
2006,12,21,02,28,4.30
2006,12,21,02,29,6.00
2006,12,21,02,30,2.30
2006,12,21,02,31,1.00
2006,12,21,02,32,4.30
2006,12,21,02,33,6.10
2006,12,21,02,34,11.80
2006,12,21,02,35,12.40
2006,12,21,02,36,1.90
2006,12,21,02,37,5.80
2006,12,21,02,38,7.20
2006,12,21,02,39,6.50
2006,12,21,02,40,6.30
2006,12,21,02,41,8.30
2006,12,21,02,42,4.00
2006,12,21,02,43,6.40
2006,12,21,02,44,6.00
2006,12,21,02,45,4.70
2006,12,21,02,46,4.00
2006,12,21,02,47,2.80
2006,12,21,02,48,4.00
2006,12,21,02,49,12.90
2006,12,21,02,50,17.90
2006,12,21,02,51,15.80
2006,12,21,02,52,19.40
2006,12,21,02,53,16.30
2006,12,21,02,54,41.90
2006,12,21,02,55,28.60
2006,12,21,02,56,36.50
2006,12,21,02,57,15.20
2006,12,21,02,58,17.50
2006,12,21,02,59,17.40
2006,12,21,03,00,23.90
2006,12,21,03,01,24.10
2006,12,21,03,02,17.30
2006,12,21,03,03,30.90
2006,12,21,03,04,25.90
2006,12,21,03,05,23.70
2006,12,21,03,06,32.40
2006,12,21,03,07,21.90
2006,12,21,03,08,14.50
2006,12,21,03,09,6.10
2006,12,21,03,10,15.80
2006,12,21,03,11,13.80
2006,12,21,03,12,28.60
2006,12,21,03,13,17.40
2006,12,21,03,14,20.40
2006,12,21,03,15,14.60
2006,12,21,03,16,10.80
2006,12,21,03,17,10.50
2006,12,21,03,18,12.20
2006,12,21,03,19,9.50
2006,12,21,03,20,14.20
2006,12,21,03,21,10.60
2006,12,21,03,22,13.50
2006,12,21,03,23,21.00
2006,12,21,03,24,17.10
2006,12,21,03,25,20.70
2006,12,21,03,26,21.00
2006,12,21,03,27,17.90
2006,12,21,03,28,12.50
2006,12,21,03,29,9.80
2006,12,21,03,30,18.60
2006,12,21,03,31,13.80
2006,12,21,03,32,9.10
2006,12,21,03,33,11.70
2006,12,21,03,34,22.90
2006,12,21,03,35,20.70
2006,12,21,03,36,7.30
2006,12,21,03,37,6.50
2006,12,21,03,38,6.90
2006,12,21,03,39,16.30
2006,12,21,03,40,8.20
2006,12,21,03,41,17.90
2006,12,21,03,42,11.50
2006,12,21,03,43,4.90
2006,12,21,03,44,11.40
2006,12,21,03,45,10.80
2006,12,21,03,46,13.30
2006,12,21,03,47,12.90
2006,12,21,03,48,8.30
2006,12,21,03,49,6.80
2006,12,21,03,50,9.00
2006,12,21,03,51,8.60
2006,12,21,03,52,8.00
2006,12,21,03,53,7.00
2006,12,21,03,54,7.10
2006,12,21,03,55,7.00
2006,12,21,03,56,10.70
2006,12,21,03,57,6.70
2006,12,21,03,58,7.70
2006,12,21,03,59,13.50
2006,12,21,04,00,15.50
2006,12,21,04,01,11.30
2006,12,21,04,02,10.90
2006,12,21,04,03,14.00
2006,12,21,04,04,23.20
2006,12,21,04,05,11.00
2006,12,21,04,06,14.80
2006,12,21,04,07,11.10
2006,12,21,04,08,11.70
2006,12,21,04,09,6.20
2006,12,21,04,10,7.00
2006,12,21,04,11,12.00
2006,12,21,04,12,11.20
2006,12,21,04,13,10.00
2006,12,21,04,14,5.60
2006,12,21,04,15,10.20
2006,12,21,04,16,13.00
2006,12,21,04,17,16.60
2006,12,21,04,18,12.60
2006,12,21,04,19,8.90
2006,12,21,04,20,14.20
2006,12,21,04,21,12.20
2006,12,21,04,22,11.20
2006,12,21,04,23,10.50
2006,12,21,04,24,5.80
2006,12,21,04,25,6.70
2006,12,21,04,26,10.90
2006,12,21,04,27,12.30
2006,12,21,04,28,8.60
2006,12,21,04,29,10.90
2006,12,21,04,30,7.80
2006,12,21,04,31,8.50
2006,12,21,04,32,6.80
2006,12,21,04,33,8.40
2006,12,21,04,34,8.30
2006,12,21,04,35,8.30
2006,12,21,04,36,8.00
2006,12,21,04,37,5.50
2006,12,21,04,38,4.70
2006,12,21,04,39,4.30
2006,12,21,04,40,8.40
2006,12,21,04,41,13.30
2006,12,21,04,42,9.80
2006,12,21,04,43,4.70
2006,12,21,04,44,13.10
2006,12,21,04,45,11.90
2006,12,21,04,46,12.00
2006,12,21,04,47,7.50
2006,12,21,04,48,11.40
2006,12,21,04,49,13.00
2006,12,21,04,50,8.20
2006,12,21,04,51,9.10
2006,12,21,04,52,10.10
2006,12,21,04,53,7.80
2006,12,21,04,54,5.50
2006,12,21,04,55,6.50
2006,12,21,04,56,8.30
2006,12,21,04,57,3.50
2006,12,21,04,58,4.10
2006,12,21,04,59,3.90
2006,12,21,05,00,4.80
2006,12,21,05,01,3.00
2006,12,21,05,02,5.00
2006,12,21,05,03,4.70
2006,12,21,05,04,11.80
2006,12,21,05,05,11.80
2006,12,21,05,06,7.50
2006,12,21,05,07,4.40
2006,12,21,05,08,8.20
2006,12,21,05,09,8.70
2006,12,21,05,10,6.80
2006,12,21,05,11,13.30
2006,12,21,05,12,11.20
2006,12,21,05,13,18.40
2006,12,21,05,14,18.00
2006,12,21,05,15,15.00
2006,12,21,05,16,21.00
2006,12,21,05,17,19.90
2006,12,21,05,18,11.70
2006,12,21,05,19,20.40
2006,12,21,05,20,14.30
2006,12,21,05,21,14.70
2006,12,21,05,22,10.80
2006,12,21,05,23,17.70
2006,12,21,05,24,13.40
2006,12,21,05,25,13.80
2006,12,21,05,26,10.70
2006,12,21,05,27,16.80
2006,12,21,05,28,12.90
2006,12,21,05,29,14.20
2006,12,21,05,30,14.10
2006,12,21,05,31,16.70
2006,12,21,05,32,19.70
2006,12,21,05,33,17.80
2006,12,21,05,34,13.60
2006,12,21,05,35,16.20
2006,12,21,05,36,17.10
2006,12,21,05,37,16.30
2006,12,21,05,38,13.10
2006,12,21,05,39,13.70
2006,12,21,05,40,22.40
2006,12,21,05,41,22.90
2006,12,21,05,42,24.30
2006,12,21,05,43,31.30
2006,12,21,05,44,22.50
2006,12,21,05,45,22.20
2006,12,21,05,46,20.30
2006,12,21,05,47,14.30
2006,12,21,05,48,25.60
2006,12,21,05,49,21.10
2006,12,21,05,50,11.40
2006,12,21,05,51,16.70
2006,12,21,05,52,18.10
2006,12,21,05,53,14.80
2006,12,21,05,54,15.80
2006,12,21,05,55,16.40
2006,12,21,05,56,15.40
2006,12,21,05,57,13.40
2006,12,21,05,58,17.80
2006,12,21,05,59,13.00
2006,12,21,06,00,16.40
2006,12,21,06,01,14.20
2006,12,21,06,02,10.10
2006,12,21,06,03,11.80
2006,12,21,06,04,5.50
2006,12,21,06,05,6.80
2006,12,21,06,06,8.60
2006,12,21,06,07,7.90
2006,12,21,06,08,9.40
2006,12,21,06,09,12.20
2006,12,21,06,10,11.50
2006,12,21,06,11,10.00
2006,12,21,06,12,3.90
2006,12,21,06,13,3.80
2006,12,21,06,14,6.20
2006,12,21,06,15,6.40
2006,12,21,06,16,0.90
2006,12,21,06,17,3.00
2006,12,21,06,18,5.10
2006,12,21,06,19,4.00
2006,12,21,06,20,3.50
2006,12,21,06,21,3.50
2006,12,21,06,22,0.60
2006,12,21,06,23,0.90
2006,12,21,06,24,2.40
2006,12,21,06,25,3.50
2006,12,21,06,26,6.20
2006,12,21,06,27,1.40
2006,12,21,06,28,0.60
2006,12,21,06,29,0.00
2006,12,21,06,30,1.40
2006,12,21,06,31,0.00
2006,12,21,06,32,1.70
2006,12,21,06,33,6.90
2006,12,21,06,34,4.90
2006,12,21,06,35,1.90
2006,12,21,06,36,5.50
2006,12,21,06,37,5.00
2006,12,21,06,38,0.30
2006,12,21,06,39,0.20
2006,12,21,06,40,3.00
2006,12,21,06,41,4.60
2006,12,21,06,42,3.20
2006,12,21,06,43,3.50
2006,12,21,06,44,2.50
2006,12,21,06,45,3.10
2006,12,21,06,46,3.50
2006,12,21,06,47,4.00
2006,12,21,06,48,12.60
2006,12,21,06,49,16.70
2006,12,21,06,50,8.20
2006,12,21,06,51,13.80
2006,12,21,06,52,17.20
2006,12,21,06,53,13.20
2006,12,21,06,54,14.90
2006,12,21,06,55,11.70
2006,12,21,06,56,11.30
2006,12,21,06,57,16.30
2006,12,21,06,58,8.90
2006,12,21,06,59,10.60
2006,12,21,07,00,8.50
2006,12,21,07,01,14.60
2006,12,21,07,02,19.30
2006,12,21,07,03,20.10
2006,12,21,07,04,12.90
2006,12,21,07,05,13.70
2006,12,21,07,06,19.60
2006,12,21,07,07,13.10
2006,12,21,07,08,13.80
2006,12,21,07,09,8.00
2006,12,21,07,10,8.00
2006,12,21,07,11,4.10
2006,12,21,07,12,5.90
2006,12,21,07,13,1.50
2006,12,21,07,14,8.00
2006,12,21,07,15,6.80
2006,12,21,07,16,7.00
2006,12,21,07,17,3.70
2006,12,21,07,18,3.50
2006,12,21,07,19,6.30
2006,12,21,07,20,5.30
2006,12,21,07,21,3.60
2006,12,21,07,22,4.50
2006,12,21,07,23,5.20
2006,12,21,07,24,3.70
2006,12,21,07,25,4.00
2006,12,21,07,26,5.90
2006,12,21,07,27,3.30
2006,12,21,07,28,3.50
2006,12,21,07,29,7.40
2006,12,21,07,30,6.60
2006,12,21,07,31,6.80
2006,12,21,07,32,10.60
2006,12,21,07,33,8.00
2006,12,21,07,34,4.10
2006,12,21,07,35,3.20
2006,12,21,07,36,5.50
2006,12,21,07,37,9.70
2006,12,21,07,38,6.70
2006,12,21,07,39,2.40
2006,12,21,07,40,6.20
2006,12,21,07,41,4.70
2006,12,21,07,42,2.70
2006,12,21,07,43,4.90
2006,12,21,07,44,4.30
2006,12,21,07,45,3.00
2006,12,21,07,46,1.90
2006,12,21,07,47,1.00
2006,12,21,07,48,1.00
2006,12,21,07,49,3.10
2006,12,21,07,50,0.60
2006,12,21,07,51,0.10
2006,12,21,07,52,3.10
2006,12,21,07,53,2.20
2006,12,21,07,54,2.50
2006,12,21,07,55,3.10
2006,12,21,07,56,2.20
2006,12,21,07,57,1.10
2006,12,21,07,58,0.20
2006,12,21,07,59,2.30
2006,12,21,08,00,2.30
2006,12,21,08,01,2.00
2006,12,21,08,02,0.90
2006,12,21,08,03,0.00
2006,12,21,08,04,0.00
2006,12,21,08,05,1.20
2006,12,21,08,06,2.50
2006,12,21,08,07,2.00
2006,12,21,08,08,0.80
2006,12,21,08,09,1.40
2006,12,21,08,10,0.10
2006,12,21,08,11,0.00
2006,12,21,08,12,0.00
2006,12,21,08,13,0.00
2006,12,21,08,14,0.10
2006,12,21,08,15,0.20
2006,12,21,08,16,4.40
2006,12,21,08,17,4.70
2006,12,21,08,18,6.70
2006,12,21,08,19,3.00
2006,12,21,08,20,2.60
2006,12,21,08,21,9.10
2006,12,21,08,22,6.40
2006,12,21,08,23,2.40
2006,12,21,08,24,3.20
2006,12,21,08,25,2.70
2006,12,21,08,26,2.90
2006,12,21,08,27,5.30
2006,12,21,08,28,0.60
2006,12,21,08,29,0.90
2006,12,21,08,30,2.30
2006,12,21,08,31,1.40
2006,12,21,08,32,2.00
2006,12,21,08,33,2.40
2006,12,21,08,34,0.20
2006,12,21,08,35,3.50
2006,12,21,08,36,2.80
2006,12,21,08,37,2.30
2006,12,21,08,38,3.00
2006,12,21,08,39,3.70
2006,12,21,08,40,1.70
2006,12,21,08,41,5.80
2006,12,21,08,42,2.20
2006,12,21,08,43,3.10
2006,12,21,08,44,5.30
2006,12,21,08,45,6.00
2006,12,21,08,46,5.70
2006,12,21,08,47,5.10
2006,12,21,08,48,3.50
2006,12,21,08,49,4.10
2006,12,21,08,50,3.20
2006,12,21,08,51,3.00
2006,12,21,08,52,4.70
2006,12,21,08,53,5.10
2006,12,21,08,54,3.10
2006,12,21,08,55,2.40
2006,12,21,08,56,0.90
2006,12,21,08,57,4.70
2006,12,21,08,58,3.00
2006,12,21,08,59,1.20
2006,12,21,09,00,3.90
2006,12,21,09,01,2.70
2006,12,21,09,02,2.30
2006,12,21,09,03,4.80
2006,12,21,09,04,2.60
2006,12,21,09,05,4.30
2006,12,21,09,06,3.30
2006,12,21,09,07,1.40
2006,12,21,09,08,7.30
2006,12,21,09,09,6.90
2006,12,21,09,10,1.00
2006,12,21,09,11,4.70
2006,12,21,09,12,4.70
2006,12,21,09,13,1.30
2006,12,21,09,14,0.10
2006,12,21,09,15,1.70
2006,12,21,09,16,0.20
2006,12,21,09,17,1.90
2006,12,21,09,18,1.90
2006,12,21,09,19,0.30
2006,12,21,09,20,2.30
2006,12,21,09,21,1.40
2006,12,21,09,22,0.10
2006,12,21,09,23,0.50
2006,12,21,09,24,1.60
2006,12,21,09,25,2.30
2006,12,21,09,26,5.20
2006,12,21,09,27,2.00
2006,12,21,09,28,0.10
2006,12,21,09,29,0.00
2006,12,21,09,30,0.00
2006,12,21,09,31,0.10
2006,12,21,09,32,0.10
2006,12,21,09,33,0.00
2006,12,21,09,34,0.30
2006,12,21,09,35,0.60
2006,12,21,09,36,0.50
2006,12,21,09,37,0.10
2006,12,21,09,38,0.00
2006,12,21,09,39,1.00
2006,12,21,09,40,0.20
2006,12,21,09,41,1.40
2006,12,21,09,42,0.20
2006,12,21,09,43,0.30
2006,12,21,09,44,2.00
2006,12,21,09,45,0.20
2006,12,21,09,46,0.80
2006,12,21,09,47,1.20
2006,12,21,09,48,0.10
2006,12,21,09,49,1.30
2006,12,21,09,50,1.10
2006,12,21,09,51,1.80
2006,12,21,09,52,3.90
2006,12,21,09,53,3.50
2006,12,21,09,54,3.50
2006,12,21,09,55,3.10
2006,12,21,09,56,4.50
2006,12,21,09,57,1.70
2006,12,21,09,58,0.20
2006,12,21,09,59,0.00
2006,12,21,10,00,1.20
2006,12,21,10,01,2.70
2006,12,21,10,02,0.30
2006,12,21,10,03,0.70
2006,12,21,10,04,1.30
2006,12,21,10,05,2.90
2006,12,21,10,06,4.80
2006,12,21,10,07,0.30
2006,12,21,10,08,2.60
2006,12,21,10,09,2.10
2006,12,21,10,10,1.10
2006,12,21,10,11,2.50
2006,12,21,10,12,3.80
2006,12,21,10,13,1.20
2006,12,21,10,14,1.20
2006,12,21,10,15,0.90
2006,12,21,10,16,0.90
2006,12,21,10,17,2.60
2006,12,21,10,18,3.60
2006,12,21,10,19,4.70
2006,12,21,10,20,2.70
2006,12,21,10,21,2.70
2006,12,21,10,22,3.40
2006,12,21,10,23,2.80
2006,12,21,10,24,2.60
2006,12,21,10,25,2.20
2006,12,21,10,26,2.20
2006,12,21,10,27,3.00
2006,12,21,10,28,1.30
2006,12,21,10,29,1.90
2006,12,21,10,30,0.40
2006,12,21,10,31,0.10
2006,12,21,10,32,0.00
2006,12,21,10,33,0.30
2006,12,21,10,34,1.00
2006,12,21,10,35,0.60
2006,12,21,10,36,0.30
2006,12,21,10,37,0.70
2006,12,21,10,38,0.10
2006,12,21,10,39,0.00
2006,12,21,10,40,1.00
2006,12,21,10,41,0.10
2006,12,21,10,42,0.00
2006,12,21,10,43,0.00
2006,12,21,10,44,0.00
2006,12,21,10,45,0.00
2006,12,21,10,46,0.10
2006,12,21,10,47,4.70
2006,12,21,10,48,5.30
2006,12,21,10,49,2.80
2006,12,21,10,50,2.80
2006,12,21,10,51,3.40
2006,12,21,10,52,1.00
2006,12,21,10,53,1.40
2006,12,21,10,54,1.00
2006,12,21,10,55,0.90
2006,12,21,10,56,0.20
2006,12,21,10,57,1.40
2006,12,21,10,58,2.90
2006,12,21,10,59,4.50
2006,12,21,11,00,2.30
2006,12,21,11,01,1.80
2006,12,21,11,02,0.20
2006,12,21,11,03,0.00
2006,12,21,11,04,0.00
2006,12,21,11,05,0.70
2006,12,21,11,06,1.80
2006,12,21,11,07,2.50
2006,12,21,11,08,4.60
2006,12,21,11,09,3.60
2006,12,21,11,10,2.50
2006,12,21,11,11,3.40
2006,12,21,11,12,2.20
2006,12,21,11,13,3.20
2006,12,21,11,14,0.90
2006,12,21,11,15,0.00
2006,12,21,11,16,0.00
2006,12,21,11,17,1.00
2006,12,21,11,18,0.20
2006,12,21,11,19,0.00
2006,12,21,11,20,1.70
2006,12,21,11,21,3.00
2006,12,21,11,22,1.00
2006,12,21,11,23,4.50
2006,12,21,11,24,3.80
2006,12,21,11,25,1.50
2006,12,21,11,26,0.00
2006,12,21,11,27,0.00
2006,12,21,11,28,0.50
2006,12,21,11,29,0.30
2006,12,21,11,30,1.10
2006,12,21,11,31,0.70
2006,12,21,11,32,0.30
2006,12,21,11,33,0.10
2006,12,21,11,34,0.30
2006,12,21,11,35,1.30
2006,12,21,11,36,3.90
2006,12,21,11,37,3.90
2006,12,21,11,38,5.30
2006,12,21,11,39,5.60
2006,12,21,11,40,5.00
2006,12,21,11,41,3.40
2006,12,21,11,42,2.00
2006,12,21,11,43,3.90
2006,12,21,11,44,4.30
2006,12,21,11,45,5.10
2006,12,21,11,46,3.60
2006,12,21,11,47,0.60
2006,12,21,11,48,0.30
2006,12,21,11,49,1.80
2006,12,21,11,50,2.80
2006,12,21,11,51,0.30
2006,12,21,11,52,0.30
2006,12,21,11,53,2.90
2006,12,21,11,54,3.00
2006,12,21,11,55,0.70
2006,12,21,11,56,2.90
2006,12,21,11,57,0.90
2006,12,21,11,58,0.90
2006,12,21,11,59,1.10
2006,12,21,12,00,1.40
2006,12,21,12,01,0.20
2006,12,21,12,02,0.50
2006,12,21,12,03,1.00
2006,12,21,12,04,1.90
2006,12,21,12,05,1.50
2006,12,21,12,06,1.30
2006,12,21,12,07,1.30
2006,12,21,12,08,1.30
2006,12,21,12,09,1.00
2006,12,21,12,10,0.90
2006,12,21,12,11,2.70
2006,12,21,12,12,3.80
2006,12,21,12,13,3.30
2006,12,21,12,14,3.00
2006,12,21,12,15,2.50
2006,12,21,12,16,3.60
2006,12,21,12,17,2.10
2006,12,21,12,18,3.30
2006,12,21,12,19,1.90
2006,12,21,12,20,2.50
2006,12,21,12,21,3.00
2006,12,21,12,22,3.40
2006,12,21,12,23,3.60
2006,12,21,12,24,4.10
2006,12,21,12,25,3.50
2006,12,21,12,26,2.90
2006,12,21,12,27,2.90
2006,12,21,12,28,2.80
2006,12,21,12,29,4.00
2006,12,21,12,30,4.40
2006,12,21,12,31,5.20
2006,12,21,12,32,4.50
2006,12,21,12,33,2.20
2006,12,21,12,34,0.70
2006,12,21,12,35,1.50
2006,12,21,12,36,5.00
2006,12,21,12,37,4.90
2006,12,21,12,38,5.80
2006,12,21,12,39,7.10
2006,12,21,12,40,4.70
2006,12,21,12,41,7.60
2006,12,21,12,42,7.20
2006,12,21,12,43,7.70
2006,12,21,12,44,6.80
2006,12,21,12,45,4.90
2006,12,21,12,46,3.70
2006,12,21,12,47,3.20
2006,12,21,12,48,4.10
2006,12,21,12,49,7.00
2006,12,21,12,50,7.60
2006,12,21,12,51,3.90
2006,12,21,12,52,8.30
2006,12,21,12,53,9.30
2006,12,21,12,54,6.50
2006,12,21,12,55,5.40
2006,12,21,12,56,3.10
2006,12,21,12,57,7.60
2006,12,21,12,58,5.30
2006,12,21,12,59,6.50
2006,12,21,13,00,5.10
2006,12,21,13,01,8.10
2006,12,21,13,02,8.00
2006,12,21,13,03,5.80
2006,12,21,13,04,5.80
2006,12,21,13,05,4.80
2006,12,21,13,06,7.50
2006,12,21,13,07,4.20
2006,12,21,13,08,3.50
2006,12,21,13,09,3.10
2006,12,21,13,10,3.50
2006,12,21,13,11,3.00
2006,12,21,13,12,2.60
2006,12,21,13,13,3.80
2006,12,21,13,14,7.60
2006,12,21,13,15,6.80
2006,12,21,13,16,6.90
2006,12,21,13,17,3.90
2006,12,21,13,18,2.70
2006,12,21,13,19,2.80
2006,12,21,13,20,1.40
2006,12,21,13,21,1.80
2006,12,21,13,22,1.10
2006,12,21,13,23,0.30
2006,12,21,13,24,1.00
2006,12,21,13,25,1.20
2006,12,21,13,26,2.30
2006,12,21,13,27,1.10
2006,12,21,13,28,0.40
2006,12,21,13,29,2.30
2006,12,21,13,30,0.90
2006,12,21,13,31,4.60
2006,12,21,13,32,0.00
2006,12,21,13,33,0.10
2006,12,21,13,34,0.30
2006,12,21,13,35,1.20
2006,12,21,13,36,3.80
2006,12,21,13,37,2.50
2006,12,21,13,38,2.90
2006,12,21,13,39,2.30
2006,12,21,13,40,1.80
2006,12,21,13,41,1.70
2006,12,21,13,42,1.60
2006,12,21,13,43,0.80
2006,12,21,13,44,0.70
2006,12,21,13,45,4.30
2006,12,21,13,46,2.00
2006,12,21,13,47,0.10
2006,12,21,13,48,2.20
2006,12,21,13,49,1.20
2006,12,21,13,50,1.20
2006,12,21,13,51,2.40
2006,12,21,13,52,2.20
2006,12,21,13,53,2.40
2006,12,21,13,54,1.00
2006,12,21,13,55,0.80
2006,12,21,13,56,1.00
2006,12,21,13,57,1.50
2006,12,21,13,58,0.00
2006,12,21,13,59,1.50
2006,12,21,14,00,2.30
2006,12,21,14,01,1.50
2006,12,21,14,02,1.00
2006,12,21,14,03,4.20
2006,12,21,14,04,3.30
2006,12,21,14,05,4.10
2006,12,21,14,06,4.60
2006,12,21,14,07,3.00
2006,12,21,14,08,3.90
2006,12,21,14,09,3.30
2006,12,21,14,10,3.70
2006,12,21,14,11,3.20
2006,12,21,14,12,4.10
2006,12,21,14,13,4.20
2006,12,21,14,14,1.40
2006,12,21,14,15,0.20
2006,12,21,14,16,0.70
2006,12,21,14,17,0.60
2006,12,21,14,18,1.80
2006,12,21,14,19,0.70
2006,12,21,14,20,3.00
2006,12,21,14,21,0.20
2006,12,21,14,22,0.20
2006,12,21,14,23,1.40
2006,12,21,14,24,1.50
2006,12,21,14,25,1.40
2006,12,21,14,26,2.80
2006,12,21,14,27,1.40
2006,12,21,14,28,1.30
2006,12,21,14,29,0.10
2006,12,21,14,30,1.30
2006,12,21,14,31,3.10
2006,12,21,14,32,2.40
2006,12,21,14,33,0.90
2006,12,21,14,34,0.00
2006,12,21,14,35,2.90
2006,12,21,14,36,4.40
2006,12,21,14,37,1.00
2006,12,21,14,38,2.10
2006,12,21,14,39,1.00
2006,12,21,14,40,2.20
2006,12,21,14,41,1.50
2006,12,21,14,42,0.00
2006,12,21,14,43,1.70
2006,12,21,14,44,2.60
2006,12,21,14,45,1.70
2006,12,21,14,46,0.90
2006,12,21,14,47,1.00
2006,12,21,14,48,1.40
2006,12,21,14,49,0.10
2006,12,21,14,50,0.30
2006,12,21,14,51,1.80
2006,12,21,14,52,1.30
2006,12,21,14,53,0.30
2006,12,21,14,54,0.20
2006,12,21,14,55,4.30
2006,12,21,14,56,8.50
2006,12,21,14,57,1.80
2006,12,21,14,58,0.90
2006,12,21,14,59,2.00
2006,12,21,15,00,0.20
2006,12,21,15,01,2.70
2006,12,21,15,02,3.10
2006,12,21,15,03,3.70
2006,12,21,15,04,1.70
2006,12,21,15,05,1.30
2006,12,21,15,06,0.80
2006,12,21,15,07,0.00
2006,12,21,15,08,0.20
2006,12,21,15,09,1.10
2006,12,21,15,10,0.50
2006,12,21,15,11,0.20
2006,12,21,15,12,1.60
2006,12,21,15,13,1.80
2006,12,21,15,14,0.60
2006,12,21,15,15,0.70
2006,12,21,15,16,0.10
2006,12,21,15,17,0.20
2006,12,21,15,18,0.00
2006,12,21,15,19,0.00
2006,12,21,15,20,0.10
2006,12,21,15,21,0.00
2006,12,21,15,22,0.10
2006,12,21,15,23,0.10
2006,12,21,15,24,0.00
2006,12,21,15,25,0.10
2006,12,21,15,26,0.00
2006,12,21,15,27,0.00
2006,12,21,15,28,0.00
2006,12,21,15,29,0.70
2006,12,21,15,30,1.80
2006,12,21,15,31,0.80
2006,12,21,15,32,0.00
2006,12,21,15,33,0.00
2006,12,21,15,34,0.00
2006,12,21,15,35,0.70
2006,12,21,15,36,1.10
2006,12,21,15,37,0.40
2006,12,21,15,38,0.00
2006,12,21,15,39,0.00
2006,12,21,15,40,0.20
2006,12,21,15,41,0.90
2006,12,21,15,42,0.90
2006,12,21,15,43,0.30
2006,12,21,15,44,1.30
2006,12,21,15,45,1.40
2006,12,21,15,46,1.80
2006,12,21,15,47,0.90
2006,12,21,15,48,1.60
2006,12,21,15,49,2.70
2006,12,21,15,50,3.10
2006,12,21,15,51,0.80
2006,12,21,15,52,1.80
2006,12,21,15,53,2.10
2006,12,21,15,54,0.60
2006,12,21,15,55,0.70
2006,12,21,15,56,2.30
2006,12,21,15,57,0.50
2006,12,21,15,58,1.10
2006,12,21,15,59,2.30
2006,12,21,16,00,1.60
2006,12,21,16,01,0.60
2006,12,21,16,02,1.40
2006,12,21,16,03,1.50
2006,12,21,16,04,0.60
2006,12,21,16,05,0.00
2006,12,21,16,06,0.00
2006,12,21,16,07,0.00
2006,12,21,16,08,0.00
2006,12,21,16,09,0.00
2006,12,21,16,10,0.00
2006,12,21,16,11,0.40
2006,12,21,16,12,0.60
2006,12,21,16,13,0.10
2006,12,21,16,14,0.00
2006,12,21,16,15,0.00
2006,12,21,16,16,0.00
2006,12,21,16,17,0.00
2006,12,21,16,18,1.20
2006,12,21,16,19,3.20
2006,12,21,16,20,1.10
2006,12,21,16,21,1.30
2006,12,21,16,22,0.00
2006,12,21,16,23,0.00
2006,12,21,16,24,0.00
2006,12,21,16,25,0.00
2006,12,21,16,26,0.00
2006,12,21,16,27,0.00
2006,12,21,16,28,0.00
2006,12,21,16,29,0.00
2006,12,21,16,30,0.00
2006,12,21,16,31,0.40
2006,12,21,16,32,1.00
2006,12,21,16,33,1.00
2006,12,21,16,34,0.40
2006,12,21,16,35,0.70
2006,12,21,16,36,1.90
2006,12,21,16,37,0.00
2006,12,21,16,38,0.00
2006,12,21,16,39,1.20
2006,12,21,16,40,0.90
2006,12,21,16,41,0.30
2006,12,21,16,42,0.10
2006,12,21,16,43,0.00
2006,12,21,16,44,0.00
2006,12,21,16,45,0.00
2006,12,21,16,46,0.00
2006,12,21,16,47,0.00
2006,12,21,16,48,0.20
2006,12,21,16,49,0.00
2006,12,21,16,50,0.00
2006,12,21,16,51,0.00
2006,12,21,16,52,0.10
2006,12,21,16,53,1.10
2006,12,21,16,54,0.10
2006,12,21,16,55,0.00
2006,12,21,16,56,0.00
2006,12,21,16,57,1.50
2006,12,21,16,58,1.60
2006,12,21,16,59,0.20
2006,12,21,17,00,0.00
2006,12,21,17,01,0.00
2006,12,21,17,02,0.80
2006,12,21,17,03,1.10
2006,12,21,17,04,0.60
2006,12,21,17,05,0.20
2006,12,21,17,06,0.10
2006,12,21,17,07,1.50
2006,12,21,17,08,2.80
2006,12,21,17,09,2.50
2006,12,21,17,10,2.80
2006,12,21,17,11,4.10
2006,12,21,17,12,4.00
2006,12,21,17,13,4.10
2006,12,21,17,14,3.90
2006,12,21,17,15,4.10
2006,12,21,17,16,4.70
2006,12,21,17,17,3.50
2006,12,21,17,18,2.80
2006,12,21,17,19,3.60
2006,12,21,17,20,4.30
2006,12,21,17,21,2.70
2006,12,21,17,22,2.60
2006,12,21,17,23,3.60
2006,12,21,17,24,4.90
2006,12,21,17,25,6.20
2006,12,21,17,26,3.40
2006,12,21,17,27,0.50
2006,12,21,17,28,0.40
2006,12,21,17,29,1.60
2006,12,21,17,30,2.30
2006,12,21,17,31,4.40
2006,12,21,17,32,4.30
2006,12,21,17,33,3.10
2006,12,21,17,34,1.10
2006,12,21,17,35,3.50
2006,12,21,17,36,2.40
2006,12,21,17,37,1.50
2006,12,21,17,38,1.30
2006,12,21,17,39,3.40
2006,12,21,17,40,5.10
2006,12,21,17,41,5.40
2006,12,21,17,42,4.10
2006,12,21,17,43,3.10
2006,12,21,17,44,4.20
2006,12,21,17,45,0.90
2006,12,21,17,46,0.40
2006,12,21,17,47,0.50
2006,12,21,17,48,2.60
2006,12,21,17,49,2.30
2006,12,21,17,50,0.80
2006,12,21,17,51,0.90
2006,12,21,17,52,1.40
2006,12,21,17,53,2.90
2006,12,21,17,54,3.50
2006,12,21,17,55,3.30
2006,12,21,17,56,1.30
2006,12,21,17,57,0.90